Location: Hilina Pali Trail
(19.2864°N, 155.2806°W)
Time: 23:05:49
(UTC+00:00)

Daily predictions for brighter satellites

Satellite Brightness Start Highest point End
(mag) Time Altitude Azimuth Time Altitude Azimuth Time Altitude Azimuth
Cosmos 2297 Rocket 4.5 12:24:14 10° NNE 12:26:36 20° NE 12:26:36 20° NE
Milstar 3 Cent rocket 4.2 12:34:11 24° NE 12:34:11 24° NE 12:37:23 10° ENE
ATLAS CENTAUR R/B 4.1 12:35:36 60° E 12:35:36 60° E 12:50:51 10° NE
SL-16 R/B 4.0 12:40:15 31° ENE 12:40:15 31° ENE 12:45:32 10° NNE
Cosmos 1634 Rocket 4.2 13:21:55 63° N 13:21:55 63° N 13:27:04 10° N
Aureole 1 Rocket 4.3 13:24:51 51° ENE 13:24:51 51° ENE 13:30:24 10° NNE
CZ-2D R/B 3.6 13:21:51 10° N 13:24:32 28° NNW 13:24:32 28° NNW
DELTA 2 R/B (1) 4.1 13:31:23 54° NNE 13:31:23 54° NNE 13:35:52 10° NE
Cosmos 1980 Rocket 3.6 13:36:44 27° NNW 13:36:44 27° NNW 13:39:48 10° N
Cosmos 2360 Rocket 4.4 13:32:25 12° SE 13:35:33 18° ESE 13:39:17 10° ENE
IRS-1C Rocket 4.3 13:32:32 10° NNE 13:37:03 66° NNE 13:37:03 66° NNE
Cosmos 1470 4.4 13:40:49 32° NE 13:40:49 32° NE 13:43:20 10° NNE
ADEOS II 4.4 13:36:31 10° NE 13:40:02 18° E 13:43:31 10° SE
Palapa 6 Rocket 4.4 13:44:43 57° SSW 13:45:42 61° SSE 13:53:40 10° E
Cosmos 2322 Rocket 2.0 13:46:01 87° NNE 13:46:01 87° NNE 13:51:33 10° NNE
Cosmos 1092 Rocket 3.9 13:40:29 10° N 13:46:45 72° W 13:46:45 72° W
CZ-4B DEB 4.4 13:43:07 10° NNE 13:48:36 68° ESE 13:49:36 56° SSE
OAO 3 Rocket 4.3 13:52:06 33° SE 13:52:06 33° SE 13:54:41 10° SE
SWIFT 3.6 13:52:24 36° ESE 13:52:24 36° ESE 13:54:58 10° E
ARGOS Delta rocket 4.2 13:46:37 10° NNE 13:51:27 58° E 13:51:58 55° SE
CZ-4B R/B 3.9 13:50:50 10° NNE 13:53:23 40° NNE 13:53:23 40° NNE
Cosmos 1743 Rocket 3.7 13:51:58 10° N 13:56:07 68° ENE 13:56:07 68° ENE
Hubble Space Telescope 3.2 14:00:42 13° SE 14:00:42 13° SE 14:02:05 10° ESE
Okean O Rocket 2.5 13:55:58 10° N 13:59:01 40° NNW 13:59:01 40° NNW
Cosmos 2221 3.9 14:03:11 22° SE 14:05:20 36° E 14:09:15 10° NNE
Resurs 1-4 Rocket 4.1 14:05:35 10° NW 14:06:48 13° NW 14:06:48 13° NW
Cosmos 2297 Rocket 4.4 14:08:01 10° NW 14:08:18 11° NW 14:08:18 11° NW
Delta 2 Rocket 3.1 14:14:31 73° ENE 14:14:31 73° ENE 14:18:06 10° ENE
Cosmos 2279 Rocket 4.1 14:14:29 44° SW 14:15:54 53° W 14:21:59 10° N
ISS 0.1 14:16:20 10° NNE 14:17:58 13° NE 14:19:34 10° ENE
SL-16 R/B 2.5 14:17:57 42° W 14:18:44 45° WNW 14:24:08 10° N
CZ-3A R/B 3.3 14:18:36 29° SSW 14:21:29 70° ESE 14:45:15 10° NE
Thor Agena Rocket 3.8 14:18:33 10° SSE 14:23:34 65° ENE 14:28:32 10° N
NOSS 3-4 (A) 3.8 14:16:27 10° NW 14:23:37 62° WSW 14:31:07 10° SSE
SL-16 R/B 3.7 14:25:21 23° WNW 14:25:21 23° WNW 14:28:38 10° NW
NOSS 3-4 (C) 3.8 14:16:33 10° NW 14:23:46 63° WSW 14:31:17 10° SSE
ADEOS Rocket 3.8 14:18:35 10° NNE 14:25:26 64° ESE 14:32:54 10° S
CZ-3 R/B 3.5 14:03:51 22° WSW 14:26:16 70° NNW 14:33:59 10° ENE
Cosmos 1733 3.7 14:27:25 40° WNW 14:27:25 40° WNW 14:30:30 10° N
XTE 2.9 14:31:47 78° NNW 14:31:53 80° N 14:34:58 10° E
Cosmos 371 Rocket 4.2 14:32:26 28° WNW 14:32:36 28° WNW 14:36:45 10° NNW
GPS 2-12 Rocket1 2.9 14:32:58 39° W 14:34:35 85° N 14:39:08 10° E
Cosmos 2322 3.8 14:32:14 18° S 14:36:36 80° ESE 14:42:19 10° NNE
PSLV R/B 3.4 14:32:24 10° N 14:36:37 73° WNW 14:38:56 27° SSW
Cosmos 1538 Rocket 4.4 14:36:43 32° WSW 14:38:29 43° WNW 14:43:29 10° N
Tiangong 1 3.8 14:39:18 10° SSE 14:40:29 12° SE 14:41:41 10° ESE
Cosmos 923 Rocket 4.1 14:38:35 13° S 14:43:15 79° ESE 14:48:28 10° NNE
Okean-O 2.7 14:39:39 10° N 14:43:59 56° WNW 14:46:31 23° SW
Cosmos 2058 4.2 14:41:17 10° NNE 14:45:17 42° E 14:49:16 10° SSE
Cosmos 1655 Rocket 4.4 14:40:54 10° NNW 14:46:50 42° W 14:52:46 10° SSW
ASTRO E2 3.9 14:43:58 10° NW 14:47:48 42° NNE 14:51:39 10° E
Meteor 1-16 Rocket 4.3 14:43:11 14° SSW 14:48:08 61° W 14:54:01 10° N
FUSE 3.9 14:44:38 18° WNW 14:48:36 75° SSW 14:53:55 10° ESE
CZ-4B R/B 4.4 14:45:28 10° NNW 14:49:40 23° WNW 14:51:17 20° W
Cosmos 2266 Rocket 4.3 14:49:33 10° N 14:55:44 72° E 15:02:00 10° S
NOAA 6 4.4 14:54:04 10° NNE 14:59:09 67° ESE 15:04:14 10° S
RESURS DK-1 2.4 14:56:03 10° NNW 15:00:11 80° ENE 15:04:18 10° SSE
Cosmos 2227 4.4 14:55:08 10° NNW 15:00:37 48° WSW 15:06:05 10° S
Delta R/B 2.9 15:00:11 18° WNW 15:01:44 89° N 15:08:46 10° ESE
Delta 7925 Rocket 3.3 14:56:48 12° WNW 15:01:48 64° SSW 15:06:25 10° ESE
Cosmos 773 Rocket 4.3 14:58:23 16° SW 15:02:09 44° WNW 15:07:03 10° N
Cosmos 1437 Rocket 3.6 15:00:26 10° S 15:04:05 50° E 15:07:46 10° NNE
Cosmos 1461 3.1 15:03:17 10° NNW 15:07:14 69° ENE 15:11:06 10° SSE
Sich 1 4.3 15:05:27 10° N 15:09:35 45° E 15:13:45 10° SSE
Milstar 3 Cent rocket 4.0 15:04:43 10° WNW 15:10:55 54° NNE 15:23:23 10° E
Cosmos 1328 Rocket 3.9 15:07:27 10° S 15:11:52 70° E 15:16:17 10° N
Cosmos 1674 4.1 15:09:13 10° NW 15:11:53 19° W 15:13:47 13° SW
USA 116 3.0 15:09:09 10° S 15:12:11 63° W 15:15:18 10° NNW
Meteor 2-20 Rocket 4.4 15:08:44 10° NNW 15:14:45 67° W 15:20:48 10° S
Cosmos 2360 Rocket 2.9 15:14:14 11° SW 15:19:10 35° WNW 15:24:16 10° N
ADEOS II 2.9 15:15:00 10° NNW 15:19:38 33° WNW 15:24:16 10° SW
Cosmos 1666 Rocket 3.7 15:15:48 10° N 15:20:09 77° E 15:24:28 10° S
OTV 4 0.9 15:18:06 11° SW 15:20:50 53° SE 15:23:43 10° ENE
Cosmos 2228 Rocket 3.2 15:19:45 10° SSW 15:24:06 58° W 15:28:31 10° N
Meteor 1-11 4.2 15:18:58 10° NNW 15:24:33 68° W 15:30:12 10° S
SL-14 R/B 3.2 15:22:13 10° NNW 15:26:03 66° W 15:29:51 10° S
Cosmos 2151 4.0 15:23:37 10° NW 15:27:09 25° W 15:30:40 10° SSW
Aureole 3 4.4 15:24:21 10° NNW 15:29:17 56° W 15:35:33 10° S
Ariane Rocket 3.0 15:25:15 10° N 15:30:16 71° WNW 15:35:17 10° SSW
Aurora 2 Rocket 2.3 15:28:44 10° WNW 15:31:53 62° NNE 15:35:43 10° E
Cosmos 2237 Rocket 4.2 15:27:25 10° SSE 15:32:15 29° ESE 15:37:05 10° NE
SWIFT 3.0 15:28:46 10° W 15:32:40 37° SSW 15:36:35 10° SE
